TimeEDT,TemperatureF,Dew PointF,Humidity,Sea Level PressureIn,VisibilityMPH,Wind Direction,Wind SpeedMPH,Gust SpeedMPH,PrecipitationIn,Events,Conditions,WindDirDegrees,DateUTC
12:03 AM,64.4,60.8,88,30.00,6.0,SW,8.1,-,N/A,,Mostly Cloudy,230,2013-05-30 04:03:00
12:51 AM,63.0,61.0,93,30.01,6.0,SW,5.8,-,N/A,,Mostly Cloudy,230,2013-05-30 04:51:00
12:59 AM,62.6,60.8,94,30.02,6.0,SW,6.9,-,N/A,,Overcast,230,2013-05-30 04:59:00
1:51 AM,64.0,62.1,93,30.01,6.0,Variable,4.6,-,N/A,,Overcast,0,2013-05-30 05:51:00
2:51 AM,64.0,61.0,90,30.03,7.0,WSW,8.1,17.3,N/A,,Overcast,240,2013-05-30 06:51:00
3:20 AM,62.6,60.8,94,30.04,9.0,Variable,4.6,-,N/A,,Mostly Cloudy,0,2013-05-30 07:20:00
3:27 AM,62.6,59.0,88,30.04,9.0,Variable,5.8,-,N/A,,Scattered Clouds,0,2013-05-30 07:27:00
3:51 AM,62.1,57.9,86,30.03,10.0,SW,4.6,-,N/A,,Clear,230,2013-05-30 07:51:00
4:51 AM,61.0,59.0,93,30.04,7.0,SW,3.5,-,N/A,,Overcast,230,2013-05-30 08:51:00
5:46 AM,60.8,59.0,94,30.08,5.0,WSW,4.6,-,N/A,,Overcast,240,2013-05-30 09:46:00
5:51 AM,61.0,59.0,93,30.06,5.0,SW,5.8,-,N/A,,Overcast,230,2013-05-30 09:51:00
6:26 AM,62.6,60.8,94,30.08,5.0,WSW,4.6,-,N/A,,Overcast,240,2013-05-30 10:26:00
6:37 AM,62.6,60.8,94,30.08,5.0,WSW,4.6,-,N/A,,Overcast,240,2013-05-30 10:37:00
6:51 AM,62.1,60.1,93,30.07,5.0,SW,6.9,-,N/A,,Overcast,230,2013-05-30 10:51:00
7:51 AM,63.0,61.0,93,30.08,5.0,WSW,5.8,-,N/A,,Overcast,240,2013-05-30 11:51:00
8:51 AM,66.0,62.1,87,30.08,7.0,WSW,5.8,-,N/A,,Overcast,250,2013-05-30 12:51:00
9:06 AM,66.2,62.6,88,30.10,7.0,West,8.1,-,N/A,,Overcast,270,2013-05-30 13:06:00
9:51 AM,70.0,61.0,73,30.09,10.0,WSW,10.4,-,N/A,,Mostly Cloudy,250,2013-05-30 13:51:00
10:35 AM,71.6,60.8,69,30.10,10.0,Variable,4.6,-,N/A,,Mostly Cloudy,0,2013-05-30 14:35:00
10:43 AM,71.6,60.8,69,30.10,10.0,West,6.9,-,N/A,,Mostly Cloudy,260,2013-05-30 14:43:00
10:51 AM,71.1,61.0,70,30.09,10.0,Variable,6.9,-,N/A,,Mostly Cloudy,0,2013-05-30 14:51:00
11:51 AM,75.0,60.1,60,30.09,10.0,WNW,13.8,19.6,N/A,,Mostly Cloudy,290,2013-05-30 15:51:00
12:51 PM,77.0,59.0,54,30.08,10.0,WSW,15.0,21.9,N/A,,Scattered Clouds,250,2013-05-30 16:51:00
1:51 PM,79.0,57.9,48,30.07,10.0,WSW,12.7,24.2,N/A,,Partly Cloudy,250,2013-05-30 17:51:00
2:51 PM,80.1,57.9,47,30.06,10.0,Variable,4.6,-,N/A,,Partly Cloudy,0,2013-05-30 18:51:00
3:51 PM,81.0,59.0,47,30.06,10.0,WSW,10.4,-,N/A,,Scattered Clouds,240,2013-05-30 19:51:00
4:51 PM,80.1,59.0,48,30.06,10.0,WSW,9.2,-,N/A,,Partly Cloudy,240,2013-05-30 20:51:00
5:51 PM,80.1,59.0,48,30.05,10.0,WSW,12.7,19.6,N/A,,Partly Cloudy,250,2013-05-30 21:51:00
6:51 PM,78.1,57.9,50,30.05,10.0,Variable,6.9,16.1,N/A,,Clear,0,2013-05-30 22:51:00
7:51 PM,75.0,60.1,60,30.06,10.0,WSW,6.9,-,N/A,,Clear,240,2013-05-30 23:51:00
8:51 PM,71.1,60.1,68,30.06,10.0,SW,4.6,-,N/A,,Clear,230,2013-05-31 00:51:00
9:51 PM,63.0,60.1,90,30.07,9.0,WSW,3.5,-,N/A,,Clear,250,2013-05-31 01:51:00
10:51 PM,62.1,59.0,90,30.08,8.0,SW,3.5,-,N/A,,Clear,220,2013-05-31 02:51:00
11:51 PM,61.0,57.9,90,30.09,7.0,Calm,Calm,-,N/A,,Clear,0,2013-05-31 03:51:00